Location: Albert Place
(40.7505°N, 111.9230°W)
Time: 14:07:25
(UTC+00:00)

IRS-1D - Pass Details

Date: 13 December 2025
Orbit: 737 x 810 km, 98.8° (Epoch: 17 January)

Event Time Altitude Azimuth Distance (km) Brightness Sun altitude
Rises 12:46:32 0° 10° (N) 3,214 6.7 -21.4°
Reaches altitude 10° 12:48:50 10° 7° (N) 2,295 5.9 -20.9°
Maximum altitude 12:53:50 65° 287° (WNW) 847 3.4 -20.0°
Drops below altitude 10° 12:58:54 10° 207° (SSW) 2,327 5.9 -19.1°
Sets 13:01:14 0° 204° (SSW) 3,262 6.7 -18.7°
